EDT,Max TemperatureF,Mean TemperatureF,Min TemperatureF,Max Dew PointF,MeanDew PointF,Min DewpointF,Max Humidity, Mean Humidity, Min Humidity, Max Sea Level PressureIn, Mean Sea Level PressureIn, Min Sea Level PressureIn, Max VisibilityMiles, Mean VisibilityMiles, Min VisibilityMiles, Max Wind SpeedMPH, Mean Wind SpeedMPH, Max Gust SpeedMPH,PrecipitationIn, CloudCover, Events, WindDirDegrees
2013-10-1,79,66,52,66,55,50,93,70,47,30.12,30.06,30.01,10,5,1,12,2,17,0.00,4,,206
2013-10-2,83,69,54,63,58,53,97,72,46,30.12,30.08,30.05,10,8,4,10,2,23,0.00,2,,169
2013-10-3,83,71,59,66,63,57,97,76,55,30.10,30.06,30.02,10,7,1,21,2,30,0.20,6,Rain-Thunderstorm,199
2013-10-4,82,72,62,66,64,61,100,77,54,30.11,30.07,30.05,10,7,2,10,3,15,0.01,4,Rain,165
2013-10-5,79,72,64,70,67,63,100,84,67,30.10,30.04,29.97,10,6,0,14,2,20,0.70,5,Fog-Rain-Thunderstorm,184
2013-10-6,83,70,57,67,64,53,100,76,51,29.98,29.89,29.74,10,5,1,16,6,26,0.05,4,Rain,156
2013-10-7,60,53,46,54,48,42,93,73,53,30.17,29.89,29.78,10,8,2,16,4,23,0.64,7,Rain,250
2013-10-8,69,55,40,47,42,39,96,68,39,30.32,30.26,30.18,10,6,0,9,2,14,0.00,2,Fog,110
2013-10-9,72,55,38,45,40,36,96,62,28,30.34,30.28,30.23,10,6,0,13,2,17,0.00,1,Fog,120
2013-10-10,73,58,42,48,44,39,96,67,38,30.24,30.18,30.12,10,10,7,7,1,10,0.00,0,,355
2013-10-11,74,59,44,56,48,41,93,64,34,30.14,30.10,30.06,10,10,9,12,2,16,T,4,Rain,61
2013-10-12,79,65,51,60,55,49,100,74,48,30.14,30.10,30.07,10,9,2,12,1,16,0.00,4,,138
2013-10-13,73,66,59,60,58,55,97,79,61,30.29,30.24,30.15,10,7,2,10,3,14,0.08,8,Rain,45
2013-10-14,71,60,48,55,50,45,87,66,44,30.35,30.29,30.23,10,10,9,12,3,16,0.00,5,,14
2013-10-15,69,58,47,60,53,44,93,80,67,30.25,30.12,29.98,10,8,1,8,3,12,0.00,5,,133
2013-10-16,65,59,53,61,58,50,93,80,67,29.97,29.92,29.86,10,9,2,10,4,16,0.20,8,Rain,171
2013-10-17,57,51,44,49,46,43,100,86,72,29.94,29.88,29.80,10,6,0,12,2,16,0.35,7,Fog-Rain,271
2013-10-18,63,53,42,44,41,38,89,66,42,30.05,29.99,29.94,10,10,8,14,4,21,0.00,1,,212
2013-10-19,55,48,41,47,41,37,89,78,66,29.98,29.87,29.76,10,9,2,16,5,21,0.13,5,Rain,202
2013-10-20,60,49,37,38,37,34,86,64,42,30.04,30.02,29.98,10,10,10,17,5,26,0.00,0,,196
2013-10-21,66,53,39,46,37,35,85,59,32,30.05,29.97,29.88,10,10,10,15,6,22,T,2,,174
2013-10-22,53,45,36,47,35,25,86,61,35,30.02,29.94,29.87,10,9,4,15,4,20,0.19,4,Rain,290
2013-10-23,43,39,34,37,35,32,92,80,67,29.99,29.86,29.80,10,10,7,14,3,20,0.05,8,Rain,298
2013-10-24,46,38,29,32,29,26,92,69,45,30.21,30.08,29.98,10,10,8,16,5,23,0.01,5,,260
2013-10-25,50,39,28,31,28,26,92,69,45,30.39,30.31,30.22,10,10,6,10,3,16,T,3,,272
2013-10-26,48,41,34,33,26,22,70,52,34,30.27,30.07,29.93,10,10,10,17,6,28,T,4,Rain,211
2013-10-27,54,41,28,35,29,25,100,69,38,30.13,30.08,30.03,10,6,0,10,2,15,0.00,3,Fog,275
2013-10-28,61,44,27,35,29,25,92,61,30,30.33,30.24,30.14,10,7,0,8,1,10,0.00,1,Fog,352
2013-10-29,60,46,31,39,34,28,96,68,40,30.43,30.36,30.27,10,7,1,7,0,12,0.01,1,,100
2013-10-30,64,53,41,54,45,39,89,71,52,30.25,30.18,30.08,10,10,8,8,2,12,0.00,7,,151
2013-10-31,69,64,58,58,56,53,93,78,63,30.06,29.80,29.39,10,8,2,26,10,40,0.35,7,Rain,177